Regional Weather Roundup
Issued by NWS Newport/Morehead, NC

Home | Current Version | Previous Version | Text Only | Print | Product List | Glossary On
Versions: 1 2 3 4 5 6 7 8 9 10 11 12 13 14 15 16 17 18 19 20 21 22 23 24 25 26 27 28 29 30 31 32 33 34 35 36 37 38 39 40 41 42 43 44 45 46 47 48 49 50
000
ASUS42 KMHX 131625
RWRMHX
WEATHER ROUNDUP FOR EASTERN NORTH CAROLINA
NATIONAL WEATHER SERVICE NEWPORT/MOREHEAD CITY NC
1100 AM EST SAT FEB 13 2016

NOTE: "FAIR" INDICATES FEW OR NO CLOUDS BELOW 12,000 FEET
WITH NO SIGNIFICANT WEATHER AND/OR OBSTRUCTIONS TO VISIBILITY

NCZ015>017-031-032-045>047-102-103-131700-
NORTH COAST

CITY           SKY/WX    TMP DP  RH WIND       PRES   REMARKS
EDENTON        SUNNY     33  10  38 N18G26    30.26R
ELIZABETH CITY SUNNY     29  10  45 NW21G31   30.24R WCI  16
KITTY HAWK     NOT AVBL
MANTEO         NOT AVBL

$$

NCZ045>047-081-094-103-104-131700-
CENTRAL COAST

CITY           SKY/WX    TMP DP  RH WIND       PRES   REMARKS
FRISCO         PTSUNNY   33  20  58 N9G18     30.23R
SWANQUARTER      N/A     32 N/A N/A NW2       30.21S

$$

NCZ095-097-098-100-101-131700-
SOUTHERN COAST

CITY           SKY/WX    TMP DP  RH WIND       PRES   REMARKS
BEAUFORT       SUNNY     36  19  50 NW23      30.25R
CEDAR ISLAND     N/A     34 N/A N/A NW24G32   30.27S
JACKSONVILLE   MOSUNNY   36  19  50 N17G26    30.26R
PINEY ISLAND   MOSUNNY  N/A N/A N/A NW20G28   30.24R
WILMINGTON     SUNNY     40  16  37 N14G22    30.26S


$$

NCZ011>013-027>030-043-044-078>080-089-090>093-098-131700-
COASTAL PLAIN

CITY           SKY/WX    TMP DP  RH WIND       PRES   REMARKS
AHOSKIE        SUNNY     31   1  27 NW6       30.28
CLINTON        SUNNY     34  21  58 NW9       30.30R
ELIZABETHTOWN  SUNNY     37  17  44 N7G20     30.30R
GOLDSBORO      SUNNY     32   9  37 N16G22    30.28R
GREENVILLE     SUNNY     32   7  34 N9G20     30.29S
HAVELOCK       MOSUNNY   36  20  52 NW17      30.26R
KENANSVILLE    SUNNY     33  19  56 NW9G17    30.31R
KINSTON        SUNNY     32  12  43 NW16G25   30.29R
NEW BERN       MOSUNNY   34  19  54 NW16G24   30.27R
RICHLANDS      SUNNY     34  18  51 CALM      30.28R
ROCKY MOUNT    SUNNY     30   2  30 NW18G25   30.31R WCI  18
WASHINGTON     SUNNY     32   4  31 NW10G23   30.27R
WHITEVILLE     SUNNY     38  13  36 N7        30.28R

$$

AMZ130-135-150-152-154-156-158-170-250-252-270-ANZ085-086-088-633-658-670-131700-
MARINE OBSERVATIONS

STATION/POSITION TIME  TEMP    WIND        PRES    WAVE   SWELL
                       AIR SEA DIR/SP/G            HT/PER HT/PER
                 (UTC) (F)     (DEG/KT/KT) (MB)    (FT/S) (FT/S)
CHESAPEAKE LIGHT 1600   27     320/ 22/ 25 1024.1
64 E VA BEACH    1550   30 48  320/ 27/ 37 1020.8    9/ 7   2/11
DUCK             1600   28     330/ 22/ 26 1022.6
2 E DUCK         1511      42                N/A     5/ 6
OREGON INLET     1600   30 37  320/ 20/ 24 1023.4
13E OREGON INLT  1600      45                N/A     7/ 6   2/11
HATTERAS CG      1600   31 43  340/ 20/ 22 1023.2
DIAMOND BUOY     1550   36 71  340/ 21/ 27 1022.7    5/ 8
CAPE LOOKOUT     NOT AVBL
BEAUFORT LAB     1600   34 42  340/ 12/ 17 1023.5
30 SE NEW RVR IN 1608   39 62              1023.5
30 SE NEW RVR IN 1525      62                N/A     5/ 5   2/11
27 SE WRIGHTSVLE 1608   41 60  360/ 16/ 25 1022.7
5 SE WRIGHTSVLE  NOT AVBL
225 S CAPE HAT   1550   58 68  310/ 19/ 25   N/A    10/10   7/10
41 SE CHARLESTON 1550   45 67  360/ 17/ 21 1024.0    5/ 5

$$



USA.gov is the U.S. government's official web portal to all federal, state and local government web resources and services.